Regional Weather Roundup
Issued by NWS

Home | Current Version | Previous Version | Graphics & Text | Print | Product List | Glossary On
Versions: 1 2 3 4 5 6 7 8 9 10 11 12 13 14 15 16 17 18 19 20 21 22 23 24 25 26 27 28 29 30 31 32 33 34 35 36 37 38 39 40 41 42 43 44 45 46 47 48 49 50
000
ASUS43 KIND 170359
RWRIN

WEATHER ROUNDUP FOR INDIANA
NATIONAL WEATHER SERVICE INDIANAPOLIS IN
1100 PM EST SAT DEC 16 2017

NOTE: "FAIR" INDICATES FEW OR NO CLOUDS BELOW 12,000 FEET WITH NO
SIGNIFICANT WEATHER AND/OR OBSTRUCTIONS TO VISIBILITY.

* - STATION DOES NOT REPORT WEATHER SUCH AS PRECIPITATION OR FOG.

+ - STATION NOT QUALITY CONTROLLED BY THE NATIONAL WEATHER SERVICE.
    USE DATA WITH CAUTION...ESPECIALLY DEWPOINT AND RELATIVE
    HUMIDITY OBSERVATIONS.

INZ001>003-010>013-019-020-170500-
NORTHWEST INDIANA

CITY           SKY/WX    TMP DP  RH WIND       PRES   REMARKS
GARY /AIRPORT/ CLEAR     28  27  93 S5        30.06R WCI  23
KNOX *+        CLOUDY    32  28  86 CALM      30.05S
MICHIGAN CITY+ CLEAR     30  27  86 CALM      30.06S
MONTICELLO +   CLOUDY    38  28  66 S6        30.07R WCI  33

$$

LMZ046-743>745-170500-
SOUTHERN LAKE MICHIGAN

STATION/POSITION TIME  TEMP    WIND        PRES    WAVE
                       AIR SEA DIR/SP/G            HT
                 (UTC) (F)     (DEG/KT/KT) (MB)    (FT)
BURNS HARBOR     0340   38     180/  4/  6 1018.3R
MICHIGAN CITY    0330   37     120/  9/ 10   N/A

$$

INZ004-005-014>016-021>024-170500-
NORTH CENTRAL INDIANA

CITY           SKY/WX    TMP DP  RH WIND       PRES   REMARKS
GOSHEN         CLOUDY    33  26  75 CALM      30.07S
PERU/GRISSOM   CLOUDY    34  28  78 S6        30.07S WCI  28
SOUTH BEND     CLOUDY    29  26  89 E3        30.07S
WARSAW +       CLEAR     32  27  80 CALM      30.07S

$$

INZ006>009-017-018-025>027-170500-
NORTHEAST INDIANA

CITY           SKY/WX    TMP DP  RH WIND       PRES   REMARKS
AUBURN +       CLEAR     34  28  80 E6        30.10S WCI  29
FORT WAYNE     CLEAR     29  25  85 CALM      30.10S

$$

INZ028-029-035-036-043>045-051>053-170500-
WEST CENTRAL INDIANA

CITY           SKY/WX    TMP DP  RH WIND       PRES   REMARKS
LAFAYETTE      CLOUDY    34  28  79 CALM      30.08R
TERRE HAUTE    CLEAR     41  28  60 S9        30.13R

$$

INZ030>032-037>040-046>048-054>057-064-065-170500-
CENTRAL INDIANA

CITY           SKY/WX    TMP DP  RH WIND       PRES   REMARKS
INDIANAPOLIS   PTCLDY    39  28  64 SW12      30.12R WCI  32
-EAGLE CREEK   CLOUDY    42  27  55 S6        30.11R
KOKOMO +       CLOUDY    33  26  75 S7        30.10R WCI  27
MT COMFORT *+  PTCLDY    34  30  86 S6        30.12R WCI  29
SHELBYVILLE    CLOUDY    37  26  64 S9        30.13R WCI  30

$$

INZ033-034-041-042-049-050-058-059-170500-
EAST CENTRAL INDIANA

CITY           SKY/WX    TMP DP  RH WIND       PRES   REMARKS
MUNCIE         CLOUDY    39  27  62 S7        30.10R WCI  34
RICHMOND +     CLOUDY    32  27  80 SW6       30.13R WCI  26

$$

INZ060-061-067>069-081>083-085>088-170500-
SOUTHWEST INDIANA

CITY           SKY/WX    TMP DP  RH WIND       PRES   REMARKS
EVANSVILLE     PTCLDY    43  30  60 SW8       30.17R
HUNTINGBURG +  MOCLDY    42  30  62 S8        30.17R

$$

INZ062-063-066-070>080-084-089>092-170500-
SOUTH CENTRAL AND SOUTHEAST INDIANA

CITY           SKY/WX    TMP DP  RH WIND       PRES   REMARKS
BLOOMINGTON    CLEAR     44  27  51 SW14      30.14R
MADISON *+     CLEAR     37  28  70 S6        30.19R WCI  33
SEYMOUR +      CLEAR     39  27  60 S5        30.17R WCI  36

$$





USA.gov is the U.S. government's official web portal to all federal, state and local government web resources and services.